owner,sensor,date,latitude,longitude,vertical_datum,sea_water_practical_salinity,qcFlag 
SCCF RECON,ioos:station:SCCF:18:1,2015-05-01T00:00:00Z,26.6955,-81.8138,1.419,0.24,1111122 
SCCF RECON,ioos:station:SCCF:18:1,2015-05-01T01:00:00Z,26.6955,-81.8138,1.37,0.24,1111122 
SCCF RECON,ioos:station:SCCF:18:1,2015-05-01T02:00:00Z,26.6955,-81.8138,1.34,0.24,1111122 
SCCF RECON,ioos:station:SCCF:18:1,2015-05-01T03:00:00Z,26.6955,-81.8138,1.34,0.24,1111122 
SCCF RECON,ioos:station:SCCF:18:1,2015-05-01T04:00:00Z,26.6955,-81.8138,1.37,0.24,1111122 
SCCF RECON,ioos:station:SCCF:18:1,2015-05-01T05:00:00Z,26.6955,-81.8138,1.449,0.24,1111122 
SCCF RECON,ioos:station:SCCF:18:1,2015-05-01T06:00:00Z,26.6955,-81.8138,1.497,0.24,1111122 
SCCF RECON,ioos:station:SCCF:18:1,2015-05-01T07:00:00Z,26.6955,-81.8138,1.518,0.24,1111122 
SCCF RECON,ioos:station:SCCF:18:1,2015-05-01T08:00:00Z,26.6955,-81.8138,1.51,0.24,1111122 
SCCF RECON,ioos:station:SCCF:18:1,2015-05-01T09:00:00Z,26.6955,-81.8138,1.469,0.24,1111122 
SCCF RECON,ioos:station:SCCF:18:1,2015-05-01T10:00:00Z,26.6955,-81.8138,1.41,0.24,1111122 
SCCF RECON,ioos:station:SCCF:18:1,2015-05-01T11:00:00Z,26.6955,-81.8138,1.37,0.24,1111122 
SCCF RECON,ioos:station:SCCF:18:1,2015-05-01T12:00:00Z,26.6955,-81.8138,1.35,0.24,1111122 
SCCF RECON,ioos:station:SCCF:18:1,2015-05-01T13:00:00Z,26.6955,-81.8138,1.32,0.24,1111122 
SCCF RECON,ioos:station:SCCF:18:1,2015-05-01T14:00:00Z,26.6955,-81.8138,1.3,0.24,1111122 
SCCF RECON,ioos:station:SCCF:18:1,2015-05-01T15:00:00Z,26.6955,-81.8138,1.369,0.24,1111122 
SCCF RECON,ioos:station:SCCF:18:1,2015-05-01T16:00:00Z,26.6955,-81.8138,1.46,0.24,1111122 
SCCF RECON,ioos:station:SCCF:18:1,2015-05-01T17:00:00Z,26.6955,-81.8138,1.54,0.25,1111122 
SCCF RECON,ioos:station:SCCF:18:1,2015-05-01T18:00:00Z,26.6955,-81.8138,1.599,0.24,1111122 
SCCF RECON,ioos:station:SCCF:18:1,2015-05-01T19:00:00Z,26.6955,-81.8138,1.64,0.24,1111122 
SCCF RECON,ioos:station:SCCF:18:1,2015-05-01T20:00:00Z,26.6955,-81.8138,1.652,0.24,1111122 
SCCF RECON,ioos:station:SCCF:18:1,2015-05-01T21:00:00Z,26.6955,-81.8138,1.607,0.24,1111122 
SCCF RECON,ioos:station:SCCF:18:1,2015-05-01T22:00:00Z,26.6955,-81.8138,1.535,0.24,1111122 
SCCF RECON,ioos:station:SCCF:18:1,2015-05-01T23:00:00Z,26.6955,-81.8138,1.48,0.25,1111122 
SCCF RECON,ioos:station:SCCF:18:1,2015-05-02T00:00:00Z,26.6955,-81.8138,1.43,0.24,1111122 
SCCF RECON,ioos:station:SCCF:18:1,2015-05-02T01:00:00Z,26.6955,-81.8138,1.39,0.25,1111122 
SCCF RECON,ioos:station:SCCF:18:1,2015-05-02T02:00:00Z,26.6955,-81.8138,1.35,0.25,1111122 
SCCF RECON,ioos:station:SCCF:18:1,2015-05-02T03:00:00Z,26.6955,-81.8138,1.31,0.25,1111122 
SCCF RECON,ioos:station:SCCF:18:1,2015-05-02T04:00:00Z,26.6955,-81.8138,1.31,0.25,1111122 
SCCF RECON,ioos:station:SCCF:18:1,2015-05-02T05:00:00Z,26.6955,-81.8138,1.38,0.25,1111122 
SCCF RECON,ioos:station:SCCF:18:1,2015-05-02T06:00:00Z,26.6955,-81.8138,1.45,0.25,1111122 
SCCF RECON,ioos:station:SCCF:18:1,2015-05-02T07:00:00Z,26.6955,-81.8138,1.49,0.25,1111122 
SCCF RECON,ioos:station:SCCF:18:1,2015-05-02T08:00:00Z,26.6955,-81.8138,1.5,0.25,1111122 
SCCF RECON,ioos:station:SCCF:18:1,2015-05-02T09:00:00Z,26.6955,-81.8138,1.49,0.25,1111122 
SCCF RECON,ioos:station:SCCF:18:1,2015-05-02T10:00:00Z,26.6955,-81.8138,1.43,0.25,1111122 
SCCF RECON,ioos:station:SCCF:18:1,2015-05-02T11:00:00Z,26.6955,-81.8138,1.37,0.25,1111122 
SCCF RECON,ioos:station:SCCF:18:1,2015-05-02T12:00:00Z,26.6955,-81.8138,1.33,0.25,1111122 
SCCF RECON,ioos:station:SCCF:18:1,2015-05-02T13:00:00Z,26.6955,-81.8138,1.3,0.25,1111122 
SCCF RECON,ioos:station:SCCF:18:1,2015-05-02T14:00:00Z,26.6955,-81.8138,1.26,0.25,1111122 
SCCF RECON,ioos:station:SCCF:18:1,2015-05-02T15:00:00Z,26.6955,-81.8138,1.24,0.26,1111122 
SCCF RECON,ioos:station:SCCF:18:1,2015-05-02T16:00:00Z,26.6955,-81.8138,1.31,0.26,1111122 
SCCF RECON,ioos:station:SCCF:18:1,2015-05-02T17:00:00Z,26.6955,-81.8138,1.405,0.25,1111122 
SCCF RECON,ioos:station:SCCF:18:1,2015-05-02T18:00:00Z,26.6955,-81.8138,1.49,0.26,1111122 
SCCF RECON,ioos:station:SCCF:18:1,2015-05-02T19:00:00Z,26.6955,-81.8138,1.53,0.25,1111122 
SCCF RECON,ioos:station:SCCF:18:1,2015-05-02T20:00:00Z,26.6955,-81.8138,1.559,0.25,1111122 
SCCF RECON,ioos:station:SCCF:18:1,2015-05-02T21:00:00Z,26.6955,-81.8138,1.55,0.25,1111122 
SCCF RECON,ioos:station:SCCF:18:1,2015-05-02T22:00:00Z,26.6955,-81.8138,1.48,0.25,1111122 
SCCF RECON,ioos:station:SCCF:18:1,2015-05-02T23:00:00Z,26.6955,-81.8138,1.41,0.26,1111122 
SCCF RECON,ioos:station:SCCF:18:1,2015-05-03T00:00:00Z,26.6955,-81.8138,1.376,0.26,1111122 
SCCF RECON,ioos:station:SCCF:18:1,2015-05-03T01:00:00Z,26.6955,-81.8138,1.35,0.26,1111122 
SCCF RECON,ioos:station:SCCF:18:1,2015-05-03T02:00:00Z,26.6955,-81.8138,1.31,0.26,1111122 
SCCF RECON,ioos:station:SCCF:18:1,2015-05-03T03:00:00Z,26.6955,-81.8138,1.27,0.27,1111122 
SCCF RECON,ioos:station:SCCF:18:1,2015-05-03T04:00:00Z,26.6955,-81.8138,1.27,0.27,1111122 
SCCF RECON,ioos:station:SCCF:18:1,2015-05-03T05:00:00Z,26.6955,-81.8138,1.34,0.27,1111122 
SCCF RECON,ioos:station:SCCF:18:1,2015-05-03T06:00:00Z,26.6955,-81.8138,1.42,0.27,1111122 
SCCF RECON,ioos:station:SCCF:18:1,2015-05-03T07:00:00Z,26.6955,-81.8138,1.46,0.27,1111122 
SCCF RECON,ioos:station:SCCF:18:1,2015-05-03T08:00:00Z,26.6955,-81.8138,1.51,0.27,1111122 
SCCF RECON,ioos:station:SCCF:18:1,2015-05-03T09:00:00Z,26.6955,-81.8138,1.55,0.27,1111122 
SCCF RECON,ioos:station:SCCF:18:1,2015-05-03T10:00:00Z,26.6955,-81.8138,1.53,0.27,1111122 
SCCF RECON,ioos:station:SCCF:18:1,2015-05-03T11:00:00Z,26.6955,-81.8138,1.461,0.27,1111122 
SCCF RECON,ioos:station:SCCF:18:1,2015-05-03T12:00:00Z,26.6955,-81.8138,1.409,0.27,1111122 
SCCF RECON,ioos:station:SCCF:18:1,2015-05-03T13:00:00Z,26.6955,-81.8138,1.37,0.28,1111122 
SCCF RECON,ioos:station:SCCF:18:1,2015-05-03T14:00:00Z,26.6955,-81.8138,1.34,0.28,1111122 
SCCF RECON,ioos:station:SCCF:18:1,2015-05-03T15:00:00Z,26.6955,-81.8138,1.329,0.28,1111122 
SCCF RECON,ioos:station:SCCF:18:1,2015-05-03T16:00:00Z,26.6955,-81.8138,1.39,0.28,1111122 
SCCF RECON,ioos:station:SCCF:18:1,2015-05-03T17:00:00Z,26.6955,-81.8138,1.48,0.28,1111122 
SCCF RECON,ioos:station:SCCF:18:1,2015-05-03T18:00:00Z,26.6955,-81.8138,1.547,0.27,1111122 
SCCF RECON,ioos:station:SCCF:18:1,2015-05-03T19:00:00Z,26.6955,-81.8138,1.58,0.27,1111122 
SCCF RECON,ioos:station:SCCF:18:1,2015-05-03T20:00:00Z,26.6955,-81.8138,1.62,0.27,1111122 
SCCF RECON,ioos:station:SCCF:18:1,2015-05-03T21:00:00Z,26.6955,-81.8138,1.62,0.28,1111122 
SCCF RECON,ioos:station:SCCF:18:1,2015-05-03T22:00:00Z,26.6955,-81.8138,1.58,0.28,1111122 
SCCF RECON,ioos:station:SCCF:18:1,2015-05-03T23:00:00Z,26.6955,-81.8138,1.51,0.28,1111122 
SCCF RECON,ioos:station:SCCF:18:1,2015-05-04T00:00:00Z,26.6955,-81.8138,1.45,0.28,1111122 
SCCF RECON,ioos:station:SCCF:18:1,2015-05-04T01:00:00Z,26.6955,-81.8138,1.41,0.28,1111122 
SCCF RECON,ioos:station:SCCF:18:1,2015-05-04T02:00:00Z,26.6955,-81.8138,1.377,0.28,1111122 
SCCF RECON,ioos:station:SCCF:18:1,2015-05-04T03:00:00Z,26.6955,-81.8138,1.331,0.29,1111122 
SCCF RECON,ioos:station:SCCF:18:1,2015-05-04T04:00:00Z,26.6955,-81.8138,1.3,0.29,1111122 
SCCF RECON,ioos:station:SCCF:18:1,2015-05-04T05:00:00Z,26.6955,-81.8138,1.32,0.29,1111122 
SCCF RECON,ioos:station:SCCF:18:1,2015-05-04T06:00:00Z,26.6955,-81.8138,1.382,0.29,1111122 
SCCF RECON,ioos:station:SCCF:18:1,2015-05-04T07:00:00Z,26.6955,-81.8138,1.46,0.28,1111122 
SCCF RECON,ioos:station:SCCF:18:1,2015-05-04T08:00:00Z,26.6955,-81.8138,1.503,0.28,1111122 
SCCF RECON,ioos:station:SCCF:18:1,2015-05-04T09:00:00Z,26.6955,-81.8138,1.53,0.28,1111122 
SCCF RECON,ioos:station:SCCF:18:1,2015-05-04T10:00:00Z,26.6955,-81.8138,1.53,0.29,1111122 
SCCF RECON,ioos:station:SCCF:18:1,2015-05-04T11:00:00Z,26.6955,-81.8138,1.49,0.29,1111122 
SCCF RECON,ioos:station:SCCF:18:1,2015-05-04T12:00:00Z,26.6955,-81.8138,1.436,0.29,1111122 
SCCF RECON,ioos:station:SCCF:18:1,2015-05-04T13:00:00Z,26.6955,-81.8138,1.4,0.29,1111122 
SCCF RECON,ioos:station:SCCF:18:1,2015-05-04T14:00:00Z,26.6955,-81.8138,1.37,0.29,1111122 
SCCF RECON,ioos:station:SCCF:18:1,2015-05-04T15:00:00Z,26.6955,-81.8138,1.354,0.29,1111122 
SCCF RECON,ioos:station:SCCF:18:1,2015-05-04T16:00:00Z,26.6955,-81.8138,1.381,0.29,1111122 
SCCF RECON,ioos:station:SCCF:18:1,2015-05-04T17:00:00Z,26.6955,-81.8138,1.441,0.29,1111122 
SCCF RECON,ioos:station:SCCF:18:1,2015-05-04T18:00:00Z,26.6955,-81.8138,1.467,0.29,1111122 
SCCF RECON,ioos:station:SCCF:18:1,2015-05-04T19:00:00Z,26.6955,-81.8138,1.52,0.29,1111122 
SCCF RECON,ioos:station:SCCF:18:1,2015-05-04T20:00:00Z,26.6955,-81.8138,1.58,0.29,1111122 
SCCF RECON,ioos:station:SCCF:18:1,2015-05-04T21:00:00Z,26.6955,-81.8138,1.595,0.29,1111122 
SCCF RECON,ioos:station:SCCF:18:1,2015-05-04T22:00:00Z,26.6955,-81.8138,1.55,0.29,1111122 
SCCF RECON,ioos:station:SCCF:18:1,2015-05-04T23:00:00Z,26.6955,-81.8138,1.48,0.29,1111122 
SCCF RECON,ioos:station:SCCF:18:1,2015-05-05T00:00:00Z,26.6955,-81.8138,1.42,0.29,1111122 
SCCF RECON,ioos:station:SCCF:18:1,2015-05-05T01:00:00Z,26.6955,-81.8138,1.39,0.29,1111122 
SCCF RECON,ioos:station:SCCF:18:1,2015-05-05T02:00:00Z,26.6955,-81.8138,1.36,0.29,1111122 
SCCF RECON,ioos:station:SCCF:18:1,2015-05-05T03:00:00Z,26.6955,-81.8138,1.32,0.29,1111122 
SCCF RECON,ioos:station:SCCF:18:1,2015-05-05T04:00:00Z,26.6955,-81.8138,1.27,0.29,1111122 
SCCF RECON,ioos:station:SCCF:18:1,2015-05-05T05:00:00Z,26.6955,-81.8138,1.24,0.29,1111122 
SCCF RECON,ioos:station:SCCF:18:1,2015-05-05T06:00:00Z,26.6955,-81.8138,1.278,0.28,1111122 
SCCF RECON,ioos:station:SCCF:18:1,2015-05-05T07:00:00Z,26.6955,-81.8138,1.34,0.29,1111122 
SCCF RECON,ioos:station:SCCF:18:1,2015-05-05T08:00:00Z,26.6955,-81.8138,1.4,0.29,1111122 
SCCF RECON,ioos:station:SCCF:18:1,2015-05-05T09:00:00Z,26.6955,-81.8138,1.44,0.29,1111122 
SCCF RECON,ioos:station:SCCF:18:1,2015-05-05T10:00:00Z,26.6955,-81.8138,1.48,0.29,1111122 
SCCF RECON,ioos:station:SCCF:18:1,2015-05-05T11:00:00Z,26.6955,-81.8138,1.5,0.29,1111122 
SCCF RECON,ioos:station:SCCF:18:1,2015-05-05T12:00:00Z,26.6955,-81.8138,1.46,0.29,1111122 
SCCF RECON,ioos:station:SCCF:18:1,2015-05-05T13:00:00Z,26.6955,-81.8138,1.41,0.28,1111122 
SCCF RECON,ioos:station:SCCF:18:1,2015-05-05T14:00:00Z,26.6955,-81.8138,1.379,0.28,1111122 
SCCF RECON,ioos:station:SCCF:18:1,2015-05-05T15:00:00Z,26.6955,-81.8138,1.35,0.28,1111122 
SCCF RECON,ioos:station:SCCF:18:1,2015-05-05T16:00:00Z,26.6955,-81.8138,1.347,0.28,1111122 
SCCF RECON,ioos:station:SCCF:18:1,2015-05-05T17:00:00Z,26.6955,-81.8138,1.42,0.28,1111122 
SCCF RECON,ioos:station:SCCF:18:1,2015-05-05T18:00:00Z,26.6955,-81.8138,1.507,0.28,1111122 
SCCF RECON,ioos:station:SCCF:18:1,2015-05-05T19:00:00Z,26.6955,-81.8138,1.57,0.28,1111122 
SCCF RECON,ioos:station:SCCF:18:1,2015-05-05T20:00:00Z,26.6955,-81.8138,1.619,0.28,1111122 
SCCF RECON,ioos:station:SCCF:18:1,2015-05-05T21:00:00Z,26.6955,-81.8138,1.655,0.29,1111122 
SCCF RECON,ioos:station:SCCF:18:1,2015-05-05T22:00:00Z,26.6955,-81.8138,1.67,0.28,1111122 
SCCF RECON,ioos:station:SCCF:18:1,2015-05-05T23:00:00Z,26.6955,-81.8138,1.62,0.28,1111122 
SCCF RECON,ioos:station:SCCF:18:1,2015-05-06T00:00:00Z,26.6955,-81.8138,1.54,0.28,1111122 
SCCF RECON,ioos:station:SCCF:18:1,2015-05-06T01:00:00Z,26.6955,-81.8138,1.476,0.28,1111122 
SCCF RECON,ioos:station:SCCF:18:1,2015-05-06T02:00:00Z,26.6955,-81.8138,1.43,0.28,1111122 
SCCF RECON,ioos:station:SCCF:18:1,2015-05-06T03:00:00Z,26.6955,-81.8138,1.38,0.28,1111122 
SCCF RECON,ioos:station:SCCF:18:1,2015-05-06T04:00:00Z,26.6955,-81.8138,1.33,0.28,1111122 
SCCF RECON,ioos:station:SCCF:18:1,2015-05-06T05:00:00Z,26.6955,-81.8138,1.29,0.28,1111122 
SCCF RECON,ioos:station:SCCF:18:1,2015-05-06T06:00:00Z,26.6955,-81.8138,1.3,0.28,1111122 
SCCF RECON,ioos:station:SCCF:18:1,2015-05-06T07:00:00Z,26.6955,-81.8138,1.36,0.28,1111122 
SCCF RECON,ioos:station:SCCF:18:1,2015-05-06T08:00:00Z,26.6955,-81.8138,1.43,0.28,1111122 
SCCF RECON,ioos:station:SCCF:18:1,2015-05-06T09:00:00Z,26.6955,-81.8138,1.47,0.28,1111122 
SCCF RECON,ioos:station:SCCF:18:1,2015-05-06T10:00:00Z,26.6955,-81.8138,1.52,0.28,1111122 
SCCF RECON,ioos:station:SCCF:18:1,2015-05-06T11:00:00Z,26.6955,-81.8138,1.57,0.28,1111122 
SCCF RECON,ioos:station:SCCF:18:1,2015-05-06T12:00:00Z,26.6955,-81.8138,1.57,0.28,1111122 
SCCF RECON,ioos:station:SCCF:18:1,2015-05-06T13:00:00Z,26.6955,-81.8138,1.54,0.28,1111122 
SCCF RECON,ioos:station:SCCF:18:1,2015-05-06T14:00:00Z,26.6955,-81.8138,1.5,0.28,1111122 
SCCF RECON,ioos:station:SCCF:18:1,2015-05-06T15:00:00Z,26.6955,-81.8138,1.46,0.28,1111122 
SCCF RECON,ioos:station:SCCF:18:1,2015-05-06T16:00:00Z,26.6955,-81.8138,1.43,0.28,1111122 
SCCF RECON,ioos:station:SCCF:18:1,2015-05-06T17:00:00Z,26.6955,-81.8138,1.473,0.28,1111122 
SCCF RECON,ioos:station:SCCF:18:1,2015-05-06T18:00:00Z,26.6955,-81.8138,1.57,0.28,1111122 
SCCF RECON,ioos:station:SCCF:18:1,2015-05-06T19:00:00Z,26.6955,-81.8138,1.667,0.29,1111122 
SCCF RECON,ioos:station:SCCF:18:1,2015-05-06T20:00:00Z,26.6955,-81.8138,1.712,0.29,1111122 
SCCF RECON,ioos:station:SCCF:18:1,2015-05-06T21:00:00Z,26.6955,-81.8138,1.787,0.32,1111122 
SCCF RECON,ioos:station:SCCF:18:1,2015-05-06T22:00:00Z,26.6955,-81.8138,1.81,0.32,1111122 
SCCF RECON,ioos:station:SCCF:18:1,2015-05-06T23:00:00Z,26.6955,-81.8138,1.78,0.31,1111122 
SCCF RECON,ioos:station:SCCF:18:1,2015-05-07T00:00:00Z,26.6955,-81.8138,1.69,0.29,1111122 
SCCF RECON,ioos:station:SCCF:18:1,2015-05-07T01:00:00Z,26.6955,-81.8138,1.61,0.29,1111122 
SCCF RECON,ioos:station:SCCF:18:1,2015-05-07T02:00:00Z,26.6955,-81.8138,1.56,0.29,1111122 
SCCF RECON,ioos:station:SCCF:18:1,2015-05-07T03:00:00Z,26.6955,-81.8138,1.51,0.28,1111122 
SCCF RECON,ioos:station:SCCF:18:1,2015-05-07T04:00:00Z,26.6955,-81.8138,1.45,0.28,1111122 
SCCF RECON,ioos:station:SCCF:18:1,2015-05-07T05:00:00Z,26.6955,-81.8138,1.39,0.28,1111122 
SCCF RECON,ioos:station:SCCF:18:1,2015-05-07T06:00:00Z,26.6955,-81.8138,1.34,0.28,1111122 
SCCF RECON,ioos:station:SCCF:18:1,2015-05-07T07:00:00Z,26.6955,-81.8138,1.33,0.28,1111122 
SCCF RECON,ioos:station:SCCF:18:1,2015-05-07T08:00:00Z,26.6955,-81.8138,1.39,0.28,1111122 
SCCF RECON,ioos:station:SCCF:18:1,2015-05-07T09:00:00Z,26.6955,-81.8138,1.471,0.28,1111122 
SCCF RECON,ioos:station:SCCF:18:1,2015-05-07T10:00:00Z,26.6955,-81.8138,1.54,0.28,1111122 
SCCF RECON,ioos:station:SCCF:18:1,2015-05-07T11:00:00Z,26.6955,-81.8138,1.59,0.28,1111122 
SCCF RECON,ioos:station:SCCF:18:1,2015-05-07T12:00:00Z,26.6955,-81.8138,1.622,0.28,1111122 
SCCF RECON,ioos:station:SCCF:18:1,2015-05-07T13:00:00Z,26.6955,-81.8138,1.62,0.28,1111122 
SCCF RECON,ioos:station:SCCF:18:1,2015-05-07T14:00:00Z,26.6955,-81.8138,1.57,0.28,1111122 
SCCF RECON,ioos:station:SCCF:18:1,2015-05-07T15:00:00Z,26.6955,-81.8138,1.525,0.28,1111122 
SCCF RECON,ioos:station:SCCF:18:1,2015-05-07T17:00:00Z,26.6955,-81.8138,1.541,0.28,1111122 
SCCF RECON,ioos:station:SCCF:18:1,2015-05-07T18:00:00Z,26.6955,-81.8138,1.632,0.28,1111122 
SCCF RECON,ioos:station:SCCF:18:1,2015-05-07T19:00:00Z,26.6955,-81.8138,1.732,0.29,1111122 
SCCF RECON,ioos:station:SCCF:18:1,2015-05-07T20:00:00Z,26.6955,-81.8138,1.789,0.3,1111122 
SCCF RECON,ioos:station:SCCF:18:1,2015-05-07T21:00:00Z,26.6955,-81.8138,1.823,0.31,1111122 
SCCF RECON,ioos:station:SCCF:18:1,2015-05-07T22:00:00Z,26.6955,-81.8138,1.862,0.32,1111122 
SCCF RECON,ioos:station:SCCF:18:1,2015-05-07T23:00:00Z,26.6955,-81.8138,1.87,0.32,1111122 
SCCF RECON,ioos:station:SCCF:18:1,2015-05-08T00:00:00Z,26.6955,-81.8138,1.8,0.31,1111122 
SCCF RECON,ioos:station:SCCF:18:1,2015-05-08T01:00:00Z,26.6955,-81.8138,1.716,0.29,1111122 
SCCF RECON,ioos:station:SCCF:18:1,2015-05-08T02:00:00Z,26.6955,-81.8138,1.649,0.29,1111122 
SCCF RECON,ioos:station:SCCF:18:1,2015-05-08T03:00:00Z,26.6955,-81.8138,1.593,0.28,1111122 
SCCF RECON,ioos:station:SCCF:18:1,2015-05-08T04:00:00Z,26.6955,-81.8138,1.53,0.29,1111122 
SCCF RECON,ioos:station:SCCF:18:1,2015-05-08T05:00:00Z,26.6955,-81.8138,1.47,0.28,1111122 
SCCF RECON,ioos:station:SCCF:18:1,2015-05-08T06:00:00Z,26.6955,-81.8138,1.41,0.28,1111122 
SCCF RECON,ioos:station:SCCF:18:1,2015-05-08T07:00:00Z,26.6955,-81.8138,1.37,0.28,1111122 
SCCF RECON,ioos:station:SCCF:18:1,2015-05-08T08:00:00Z,26.6955,-81.8138,1.39,0.28,1111122 
SCCF RECON,ioos:station:SCCF:18:1,2015-05-08T09:00:00Z,26.6955,-81.8138,1.45,0.28,1111122 
SCCF RECON,ioos:station:SCCF:18:1,2015-05-08T10:00:00Z,26.6955,-81.8138,1.52,0.28,1111122 
SCCF RECON,ioos:station:SCCF:18:1,2015-05-08T11:00:00Z,26.6955,-81.8138,1.58,0.28,1111122 
SCCF RECON,ioos:station:SCCF:18:1,2015-05-08T12:00:00Z,26.6955,-81.8138,1.619,0.29,1111122 
SCCF RECON,ioos:station:SCCF:18:1,2015-05-08T13:00:00Z,26.6955,-81.8138,1.64,0.28,1111122 
SCCF RECON,ioos:station:SCCF:18:1,2015-05-08T14:00:00Z,26.6955,-81.8138,1.641,0.28,1111122 
SCCF RECON,ioos:station:SCCF:18:1,2015-05-08T15:00:00Z,26.6955,-81.8138,1.6,0.28,1111122 
SCCF RECON,ioos:station:SCCF:18:1,2015-05-08T16:00:00Z,26.6955,-81.8138,1.55,0.28,1111122 
SCCF RECON,ioos:station:SCCF:18:1,2015-05-08T17:00:00Z,26.6955,-81.8138,1.51,0.27,1111122 
SCCF RECON,ioos:station:SCCF:18:1,2015-05-08T18:00:00Z,26.6955,-81.8138,1.537,0.28,1111122 
SCCF RECON,ioos:station:SCCF:18:1,2015-05-08T19:00:00Z,26.6955,-81.8138,1.64,0.28,1111122 
SCCF RECON,ioos:station:SCCF:18:1,2015-05-08T20:00:00Z,26.6955,-81.8138,1.73,0.28,1111122 
SCCF RECON,ioos:station:SCCF:18:1,2015-05-08T21:00:00Z,26.6955,-81.8138,1.79,0.29,1111122 
SCCF RECON,ioos:station:SCCF:18:1,2015-05-08T22:00:00Z,26.6955,-81.8138,1.833,0.3,1111122 
SCCF RECON,ioos:station:SCCF:18:1,2015-05-08T23:00:00Z,26.6955,-81.8138,1.86,0.31,1111122 
SCCF RECON,ioos:station:SCCF:18:1,2015-05-09T00:00:00Z,26.6955,-81.8138,1.841,0.31,1111122 
SCCF RECON,ioos:station:SCCF:18:1,2015-05-09T01:00:00Z,26.6955,-81.8138,1.77,0.29,1111122 
SCCF RECON,ioos:station:SCCF:18:1,2015-05-09T02:00:00Z,26.6955,-81.8138,1.69,0.27,1111122 
SCCF RECON,ioos:station:SCCF:18:1,2015-05-09T03:00:00Z,26.6955,-81.8138,1.63,0.28,1111122 
SCCF RECON,ioos:station:SCCF:18:1,2015-05-09T04:00:00Z,26.6955,-81.8138,1.583,0.28,1111122 
SCCF RECON,ioos:station:SCCF:18:1,2015-05-09T05:00:00Z,26.6955,-81.8138,1.522,0.28,1111122 
SCCF RECON,ioos:station:SCCF:18:1,2015-05-09T06:00:00Z,26.6955,-81.8138,1.46,0.28,1111122 
SCCF RECON,ioos:station:SCCF:18:1,2015-05-09T07:00:00Z,26.6955,-81.8138,1.41,0.28,1111122 
SCCF RECON,ioos:station:SCCF:18:1,2015-05-09T08:00:00Z,26.6955,-81.8138,1.39,0.28,1111122 
SCCF RECON,ioos:station:SCCF:18:1,2015-05-09T09:00:00Z,26.6955,-81.8138,1.43,0.27,1111122 
SCCF RECON,ioos:station:SCCF:18:1,2015-05-09T10:00:00Z,26.6955,-81.8138,1.51,0.27,1111122 
SCCF RECON,ioos:station:SCCF:18:1,2015-05-09T11:00:00Z,26.6955,-81.8138,1.579,0.27,1111122 
SCCF RECON,ioos:station:SCCF:18:1,2015-05-09T12:00:00Z,26.6955,-81.8138,1.632,0.28,1111122 
SCCF RECON,ioos:station:SCCF:18:1,2015-05-09T13:00:00Z,26.6955,-81.8138,1.67,0.28,1111122 
SCCF RECON,ioos:station:SCCF:18:1,2015-05-09T14:00:00Z,26.6955,-81.8138,1.66,0.27,1111122 
SCCF RECON,ioos:station:SCCF:18:1,2015-05-09T15:00:00Z,26.6955,-81.8138,1.62,0.27,1111122 
SCCF RECON,ioos:station:SCCF:18:1,2015-05-09T16:00:00Z,26.6955,-81.8138,1.56,0.27,1111122 
SCCF RECON,ioos:station:SCCF:18:1,2015-05-09T17:00:00Z,26.6955,-81.8138,1.52,0.27,1111122 
SCCF RECON,ioos:station:SCCF:18:1,2015-05-09T18:00:00Z,26.6955,-81.8138,1.516,0.27,1111122 
SCCF RECON,ioos:station:SCCF:18:1,2015-05-09T19:00:00Z,26.6955,-81.8138,1.55,0.27,1111122 
SCCF RECON,ioos:station:SCCF:18:1,2015-05-09T20:00:00Z,26.6955,-81.8138,1.63,0.27,1111122 
SCCF RECON,ioos:station:SCCF:18:1,2015-05-09T21:00:00Z,26.6955,-81.8138,1.7,0.27,1111122 
SCCF RECON,ioos:station:SCCF:18:1,2015-05-09T22:00:00Z,26.6955,-81.8138,1.75,0.27,1111122 
SCCF RECON,ioos:station:SCCF:18:1,2015-05-09T23:00:00Z,26.6955,-81.8138,1.78,0.27,1111122 
SCCF RECON,ioos:station:SCCF:18:1,2015-05-10T00:00:00Z,26.6955,-81.8138,1.8,0.27,1111122 
SCCF RECON,ioos:station:SCCF:18:1,2015-05-10T01:00:00Z,26.6955,-81.8138,1.77,0.27,1111122 
SCCF RECON,ioos:station:SCCF:18:1,2015-05-10T02:00:00Z,26.6955,-81.8138,1.69,0.27,1111122 
SCCF RECON,ioos:station:SCCF:18:1,2015-05-10T03:00:00Z,26.6955,-81.8138,1.623,0.27,1111122 
SCCF RECON,ioos:station:SCCF:18:1,2015-05-10T04:00:00Z,26.6955,-81.8138,1.57,0.27,1111122 
SCCF RECON,ioos:station:SCCF:18:1,2015-05-10T05:00:00Z,26.6955,-81.8138,1.52,0.27,1111122 
SCCF RECON,ioos:station:SCCF:18:1,2015-05-10T06:00:00Z,26.6955,-81.8138,1.47,0.27,1111122 
SCCF RECON,ioos:station:SCCF:18:1,2015-05-10T07:00:00Z,26.6955,-81.8138,1.41,0.27,1111122 
SCCF RECON,ioos:station:SCCF:18:1,2015-05-10T08:00:00Z,26.6955,-81.8138,1.37,0.27,1111122 
SCCF RECON,ioos:station:SCCF:18:1,2015-05-10T09:00:00Z,26.6955,-81.8138,1.35,0.27,1111122 
SCCF RECON,ioos:station:SCCF:18:1,2015-05-10T10:00:00Z,26.6955,-81.8138,1.39,0.27,1111122 
SCCF RECON,ioos:station:SCCF:18:1,2015-05-10T11:00:00Z,26.6955,-81.8138,1.471,0.27,1111122 
SCCF RECON,ioos:station:SCCF:18:1,2015-05-10T12:00:00Z,26.6955,-81.8138,1.549,0.27,1111122 
SCCF RECON,ioos:station:SCCF:18:1,2015-05-10T13:00:00Z,26.6955,-81.8138,1.6,0.27,1111122 
SCCF RECON,ioos:station:SCCF:18:1,2015-05-10T14:00:00Z,26.6955,-81.8138,1.63,0.27,1111122 
SCCF RECON,ioos:station:SCCF:18:1,2015-05-10T15:00:00Z,26.6955,-81.8138,1.66,0.27,1111122 
SCCF RECON,ioos:station:SCCF:18:1,2015-05-10T16:00:00Z,26.6955,-81.8138,1.65,0.27,1111122 
SCCF RECON,ioos:station:SCCF:18:1,2015-05-10T17:00:00Z,26.6955,-81.8138,1.61,0.27,1111122 
SCCF RECON,ioos:station:SCCF:18:1,2015-05-10T18:00:00Z,26.6955,-81.8138,1.55,0.27,1111122 
SCCF RECON,ioos:station:SCCF:18:1,2015-05-10T19:00:00Z,26.6955,-81.8138,1.52,0.27,1111122 
SCCF RECON,ioos:station:SCCF:18:1,2015-05-10T20:00:00Z,26.6955,-81.8138,1.544,0.27,1111122 
SCCF RECON,ioos:station:SCCF:18:1,2015-05-10T21:00:00Z,26.6955,-81.8138,1.57,0.27,1111122 
SCCF RECON,ioos:station:SCCF:18:1,2015-05-10T22:00:00Z,26.6955,-81.8138,1.62,0.27,1111122 
SCCF RECON,ioos:station:SCCF:18:1,2015-05-10T23:00:00Z,26.6955,-81.8138,1.701,0.35,1111122 
SCCF RECON,ioos:station:SCCF:18:1,2015-05-11T00:00:00Z,26.6955,-81.8138,1.75,0.38,1111122 
SCCF RECON,ioos:station:SCCF:18:1,2015-05-11T01:00:00Z,26.6955,-81.8138,1.75,0.31,1111122 
SCCF RECON,ioos:station:SCCF:18:1,2015-05-11T02:00:00Z,26.6955,-81.8138,1.74,0.32,1111122 
SCCF RECON,ioos:station:SCCF:18:1,2015-05-11T03:00:00Z,26.6955,-81.8138,1.69,0.27,1111122 
SCCF RECON,ioos:station:SCCF:18:1,2015-05-11T04:00:00Z,26.6955,-81.8138,1.63,0.27,1111122 
SCCF RECON,ioos:station:SCCF:18:1,2015-05-11T05:00:00Z,26.6955,-81.8138,1.569,0.27,1111122 
SCCF RECON,ioos:station:SCCF:18:1,2015-05-11T06:00:00Z,26.6955,-81.8138,1.512,0.27,1111122 
SCCF RECON,ioos:station:SCCF:18:1,2015-05-11T07:00:00Z,26.6955,-81.8138,1.46,0.27,1111122 
SCCF RECON,ioos:station:SCCF:18:1,2015-05-11T08:00:00Z,26.6955,-81.8138,1.41,0.26,1111122 
SCCF RECON,ioos:station:SCCF:18:1,2015-05-11T09:00:00Z,26.6955,-81.8138,1.36,0.27,1111122 
SCCF RECON,ioos:station:SCCF:18:1,2015-05-11T10:00:00Z,26.6955,-81.8138,1.35,0.27,1111122 
SCCF RECON,ioos:station:SCCF:18:1,2015-05-11T11:00:00Z,26.6955,-81.8138,1.39,0.26,1111122 
SCCF RECON,ioos:station:SCCF:18:1,2015-05-11T12:00:00Z,26.6955,-81.8138,1.47,0.26,1111122 
SCCF RECON,ioos:station:SCCF:18:1,2015-05-11T13:00:00Z,26.6955,-81.8138,1.54,0.3,1111122 
SCCF RECON,ioos:station:SCCF:18:1,2015-05-11T14:00:00Z,26.6955,-81.8138,1.6,0.27,1111122 
SCCF RECON,ioos:station:SCCF:18:1,2015-05-11T15:00:00Z,26.6955,-81.8138,1.64,0.29,1111122 
SCCF RECON,ioos:station:SCCF:18:1,2015-05-11T16:00:00Z,26.6955,-81.8138,1.66,0.28,1111122 
SCCF RECON,ioos:station:SCCF:18:1,2015-05-11T17:00:00Z,26.6955,-81.8138,1.65,0.26,1111122 
SCCF RECON,ioos:station:SCCF:18:1,2015-05-11T18:00:00Z,26.6955,-81.8138,1.595,0.26,1111122 
SCCF RECON,ioos:station:SCCF:18:1,2015-05-11T19:00:00Z,26.6955,-81.8138,1.532,0.26,1111122 
SCCF RECON,ioos:station:SCCF:18:1,2015-05-11T20:00:00Z,26.6955,-81.8138,1.48,0.26,1111122 
SCCF RECON,ioos:station:SCCF:18:1,2015-05-11T21:00:00Z,26.6955,-81.8138,1.46,0.26,1111122 
SCCF RECON,ioos:station:SCCF:18:1,2015-05-11T22:00:00Z,26.6955,-81.8138,1.49,0.26,1111122 